<?xml version="1.0" encoding="UTF-8" standalone="no" ?>
<gpx xmlns="http://www.topografix.com/GPX/1/1" xmlns:xsi="http://www.w3.org/2001/XMLSchema-instance" xsi:schemaLocation="http://www.topografix.com/GPX/1/1 http://www.topografix.com/GPX/1/1/gpx.xsd" version="1.1" creator="VisuGPX - https://www.visugpx.com">
  <metadata>
    <name>cap taillat</name>
    <desc><![CDATA[on peut partir de gigaro]]></desc>
  </metadata>
  <trk>
    <name><![CDATA[track]]></name>
    <trkseg>
      <trkpt lat="43.18372" lon="6.60068">
        <ele>9</ele>
        <time>2011-09-13T08:35:35Z</time>
      </trkpt>
      <trkpt lat="43.1836" lon="6.60099">
        <ele>8</ele>
        <time>2011-09-13T08:35:35Z</time>
      </trkpt>
      <trkpt lat="43.18346" lon="6.60153">
        <ele>8</ele>
        <time>2011-09-13T08:35:35Z</time>
      </trkpt>
      <trkpt lat="43.1836" lon="6.6018">
        <ele>11</ele>
        <time>2011-09-13T08:35:35Z</time>
      </trkpt>
      <trkpt lat="43.18378" lon="6.60195">
        <ele>12</ele>
        <time>2011-09-13T08:35:35Z</time>
      </trkpt>
      <trkpt lat="43.18388" lon="6.60209">
        <ele>12</ele>
        <time>2011-09-13T08:35:35Z</time>
      </trkpt>
      <trkpt lat="43.18417" lon="6.60311">
        <ele>20</ele>
        <time>2011-09-13T08:35:35Z</time>
      </trkpt>
      <trkpt lat="43.18429" lon="6.60334">
        <ele>21</ele>
        <time>2011-09-13T08:35:35Z</time>
      </trkpt>
      <trkpt lat="43.18438" lon="6.60341">
        <ele>21</ele>
        <time>2011-09-13T08:35:35Z</time>
      </trkpt>
      <trkpt lat="43.18449" lon="6.60362">
        <ele>24</ele>
        <time>2011-09-13T08:35:35Z</time>
      </trkpt>
      <trkpt lat="43.18458" lon="6.60386">
        <ele>28</ele>
        <time>2011-09-13T08:35:35Z</time>
      </trkpt>
      <trkpt lat="43.18456" lon="6.604">
        <ele>31</ele>
        <time>2011-09-13T08:35:35Z</time>
      </trkpt>
      <trkpt lat="43.18445" lon="6.60431">
        <ele>37</ele>
        <time>2011-09-13T08:35:35Z</time>
      </trkpt>
      <trkpt lat="43.18429" lon="6.60431">
        <ele>37</ele>
        <time>2011-09-13T08:35:35Z</time>
      </trkpt>
      <trkpt lat="43.18432" lon="6.60443">
        <ele>40</ele>
        <time>2011-09-13T08:35:35Z</time>
      </trkpt>
      <trkpt lat="43.18427" lon="6.60452">
        <ele>42</ele>
        <time>2011-09-13T08:35:35Z</time>
      </trkpt>
      <trkpt lat="43.18416" lon="6.60454">
        <ele>43</ele>
        <time>2011-09-13T08:35:35Z</time>
      </trkpt>
      <trkpt lat="43.18397" lon="6.60443">
        <ele>41</ele>
        <time>2011-09-13T08:35:35Z</time>
      </trkpt>
      <trkpt lat="43.1838" lon="6.60408">
        <ele>36</ele>
        <time>2011-09-13T08:35:35Z</time>
      </trkpt>
      <trkpt lat="43.18374" lon="6.60405">
        <ele>36</ele>
        <time>2011-09-13T08:35:35Z</time>
      </trkpt>
      <trkpt lat="43.18355" lon="6.60409">
        <ele>38</ele>
        <time>2011-09-13T08:35:35Z</time>
      </trkpt>
      <trkpt lat="43.18335" lon="6.60407">
        <ele>40</ele>
        <time>2011-09-13T08:35:35Z</time>
      </trkpt>
      <trkpt lat="43.18323" lon="6.60414">
        <ele>42</ele>
        <time>2011-09-13T08:35:35Z</time>
      </trkpt>
      <trkpt lat="43.18306" lon="6.6044">
        <ele>46</ele>
        <time>2011-09-13T08:35:35Z</time>
      </trkpt>
      <trkpt lat="43.18301" lon="6.60462">
        <ele>48</ele>
        <time>2011-09-13T08:35:35Z</time>
      </trkpt>
      <trkpt lat="43.18295" lon="6.6048">
        <ele>49</ele>
        <time>2011-09-13T08:35:35Z</time>
      </trkpt>
      <trkpt lat="43.18298" lon="6.60493">
        <ele>51</ele>
        <time>2011-09-13T08:35:35Z</time>
      </trkpt>
      <trkpt lat="43.18325" lon="6.6052">
        <ele>55</ele>
        <time>2011-09-13T08:35:35Z</time>
      </trkpt>
      <trkpt lat="43.18352" lon="6.60535">
        <ele>59</ele>
        <time>2011-09-13T08:35:35Z</time>
      </trkpt>
      <trkpt lat="43.18375" lon="6.60541">
        <ele>62</ele>
        <time>2011-09-13T08:35:35Z</time>
      </trkpt>
      <trkpt lat="43.18407" lon="6.60569">
        <ele>68</ele>
        <time>2011-09-13T08:35:35Z</time>
      </trkpt>
      <trkpt lat="43.18423" lon="6.60578">
        <ele>72</ele>
        <time>2011-09-13T08:35:35Z</time>
      </trkpt>
      <trkpt lat="43.18407" lon="6.60618">
        <ele>80</ele>
        <time>2011-09-13T08:35:35Z</time>
      </trkpt>
      <trkpt lat="43.18385" lon="6.60623">
        <ele>78</ele>
        <time>2011-09-13T08:35:35Z</time>
      </trkpt>
      <trkpt lat="43.18353" lon="6.60664">
        <ele>80</ele>
        <time>2011-09-13T08:35:35Z</time>
      </trkpt>
      <trkpt lat="43.18347" lon="6.60673">
        <ele>81</ele>
        <time>2011-09-13T08:35:35Z</time>
      </trkpt>
      <trkpt lat="43.18343" lon="6.60694">
        <ele>83</ele>
        <time>2011-09-13T08:35:35Z</time>
      </trkpt>
      <trkpt lat="43.18348" lon="6.60868">
        <ele>102</ele>
        <time>2011-09-13T08:35:35Z</time>
      </trkpt>
      <trkpt lat="43.18336" lon="6.60908">
        <ele>98</ele>
        <time>2011-09-13T08:35:35Z</time>
      </trkpt>
      <trkpt lat="43.18336" lon="6.60945">
        <ele>98</ele>
        <time>2011-09-13T08:35:35Z</time>
      </trkpt>
      <trkpt lat="43.18343" lon="6.60962">
        <ele>100</ele>
        <time>2011-09-13T08:35:35Z</time>
      </trkpt>
      <trkpt lat="43.18372" lon="6.60996">
        <ele>111</ele>
        <time>2011-09-13T08:35:35Z</time>
      </trkpt>
      <trkpt lat="43.18377" lon="6.61029">
        <ele>115</ele>
        <time>2011-09-13T08:35:35Z</time>
      </trkpt>
      <trkpt lat="43.18362" lon="6.61121">
        <ele>124</ele>
        <time>2011-09-13T08:35:35Z</time>
      </trkpt>
      <trkpt lat="43.18338" lon="6.6119">
        <ele>128</ele>
        <time>2011-09-13T08:35:35Z</time>
      </trkpt>
      <trkpt lat="43.18317" lon="6.61204">
        <ele>127</ele>
        <time>2011-09-13T08:35:35Z</time>
      </trkpt>
      <trkpt lat="43.18308" lon="6.61215">
        <ele>127</ele>
        <time>2011-09-13T08:35:35Z</time>
      </trkpt>
      <trkpt lat="43.18284" lon="6.61262">
        <ele>134</ele>
        <time>2011-09-13T08:35:35Z</time>
      </trkpt>
      <trkpt lat="43.18271" lon="6.61263">
        <ele>133</ele>
        <time>2011-09-13T08:35:35Z</time>
      </trkpt>
      <trkpt lat="43.18253" lon="6.61269">
        <ele>134</ele>
        <time>2011-09-13T08:35:35Z</time>
      </trkpt>
      <trkpt lat="43.18255" lon="6.61279">
        <ele>136</ele>
        <time>2011-09-13T08:35:35Z</time>
      </trkpt>
      <trkpt lat="43.18266" lon="6.61287">
        <ele>138</ele>
        <time>2011-09-13T08:35:35Z</time>
      </trkpt>
      <trkpt lat="43.18293" lon="6.61316">
        <ele>143</ele>
        <time>2011-09-13T08:35:35Z</time>
      </trkpt>
      <trkpt lat="43.18299" lon="6.6134">
        <ele>147</ele>
        <time>2011-09-13T08:35:35Z</time>
      </trkpt>
      <trkpt lat="43.18299" lon="6.61371">
        <ele>152</ele>
        <time>2011-09-13T08:35:35Z</time>
      </trkpt>
      <trkpt lat="43.18288" lon="6.61379">
        <ele>153</ele>
        <time>2011-09-13T08:35:35Z</time>
      </trkpt>
      <trkpt lat="43.18281" lon="6.61378">
        <ele>153</ele>
        <time>2011-09-13T08:35:35Z</time>
      </trkpt>
      <trkpt lat="43.18267" lon="6.6136">
        <ele>150</ele>
        <time>2011-09-13T08:35:35Z</time>
      </trkpt>
      <trkpt lat="43.18249" lon="6.61354">
        <ele>149</ele>
        <time>2011-09-13T08:35:35Z</time>
      </trkpt>
      <trkpt lat="43.1825" lon="6.61361">
        <ele>150</ele>
        <time>2011-09-13T08:35:35Z</time>
      </trkpt>
      <trkpt lat="43.18267" lon="6.61385">
        <ele>154</ele>
        <time>2011-09-13T08:35:35Z</time>
      </trkpt>
      <trkpt lat="43.18266" lon="6.61403">
        <ele>155</ele>
        <time>2011-09-13T08:35:35Z</time>
      </trkpt>
      <trkpt lat="43.18283" lon="6.61411">
        <ele>156</ele>
        <time>2011-09-13T08:35:35Z</time>
      </trkpt>
      <trkpt lat="43.18317" lon="6.61411">
        <ele>157</ele>
        <time>2011-09-13T08:35:35Z</time>
      </trkpt>
      <trkpt lat="43.18393" lon="6.61376">
        <ele>156</ele>
        <time>2011-09-13T08:35:35Z</time>
      </trkpt>
      <trkpt lat="43.18416" lon="6.61352">
        <ele>152</ele>
        <time>2011-09-13T08:35:35Z</time>
      </trkpt>
      <trkpt lat="43.1842" lon="6.61349">
        <ele>152</ele>
        <time>2011-09-13T08:35:35Z</time>
      </trkpt>
      <trkpt lat="43.18424" lon="6.61351">
        <ele>152</ele>
        <time>2011-09-13T08:35:35Z</time>
      </trkpt>
      <trkpt lat="43.18416" lon="6.61392">
        <ele>155</ele>
        <time>2011-09-13T08:35:35Z</time>
      </trkpt>
      <trkpt lat="43.18395" lon="6.61436">
        <ele>160</ele>
        <time>2011-09-13T08:35:35Z</time>
      </trkpt>
      <trkpt lat="43.18391" lon="6.6144">
        <ele>161</ele>
        <time>2011-09-13T08:35:35Z</time>
      </trkpt>
      <trkpt lat="43.18366" lon="6.61447">
        <ele>161</ele>
        <time>2011-09-13T08:35:35Z</time>
      </trkpt>
      <trkpt lat="43.18357" lon="6.61462">
        <ele>161</ele>
        <time>2011-09-13T08:35:35Z</time>
      </trkpt>
      <trkpt lat="43.18349" lon="6.61482">
        <ele>162</ele>
        <time>2011-09-13T08:35:35Z</time>
      </trkpt>
      <trkpt lat="43.18338" lon="6.61527">
        <ele>161</ele>
        <time>2011-09-13T08:35:35Z</time>
      </trkpt>
      <trkpt lat="43.1834" lon="6.61544">
        <ele>160</ele>
        <time>2011-09-13T08:35:35Z</time>
      </trkpt>
      <trkpt lat="43.18378" lon="6.61549">
        <ele>157</ele>
        <time>2011-09-13T08:35:35Z</time>
      </trkpt>
      <trkpt lat="43.18397" lon="6.61555">
        <ele>155</ele>
        <time>2011-09-13T08:35:35Z</time>
      </trkpt>
      <trkpt lat="43.18407" lon="6.61564">
        <ele>154</ele>
        <time>2011-09-13T08:35:35Z</time>
      </trkpt>
      <trkpt lat="43.18451" lon="6.61557">
        <ele>155</ele>
        <time>2011-09-13T08:35:35Z</time>
      </trkpt>
      <trkpt lat="43.18536" lon="6.61556">
        <ele>160</ele>
        <time>2011-09-13T08:35:35Z</time>
      </trkpt>
      <trkpt lat="43.18573" lon="6.61547">
        <ele>162</ele>
        <time>2011-09-13T08:35:35Z</time>
      </trkpt>
      <trkpt lat="43.18598" lon="6.61549">
        <ele>163</ele>
        <time>2011-09-13T08:35:35Z</time>
      </trkpt>
      <trkpt lat="43.18622" lon="6.61556">
        <ele>163</ele>
        <time>2011-09-13T08:35:35Z</time>
      </trkpt>
      <trkpt lat="43.18636" lon="6.61553">
        <ele>163</ele>
        <time>2011-09-13T08:35:35Z</time>
      </trkpt>
      <trkpt lat="43.18662" lon="6.61535">
        <ele>165</ele>
        <time>2011-09-13T08:35:35Z</time>
      </trkpt>
      <trkpt lat="43.18724" lon="6.61516">
        <ele>165</ele>
        <time>2011-09-13T08:35:35Z</time>
      </trkpt>
      <trkpt lat="43.18813" lon="6.61505">
        <ele>165</ele>
        <time>2011-09-13T08:35:35Z</time>
      </trkpt>
      <trkpt lat="43.18869" lon="6.61507">
        <ele>167</ele>
        <time>2011-09-13T08:35:35Z</time>
      </trkpt>
      <trkpt lat="43.18877" lon="6.61512">
        <ele>167</ele>
        <time>2011-09-13T08:35:35Z</time>
      </trkpt>
      <trkpt lat="43.18879" lon="6.61521">
        <ele>166</ele>
        <time>2011-09-13T08:35:35Z</time>
      </trkpt>
      <trkpt lat="43.18886" lon="6.61521">
        <ele>167</ele>
        <time>2011-09-13T08:35:35Z</time>
      </trkpt>
      <trkpt lat="43.18893" lon="6.61535">
        <ele>167</ele>
        <time>2011-09-13T08:35:35Z</time>
      </trkpt>
      <trkpt lat="43.18909" lon="6.61582">
        <ele>165</ele>
        <time>2011-09-13T08:35:35Z</time>
      </trkpt>
      <trkpt lat="43.18934" lon="6.61635">
        <ele>164</ele>
        <time>2011-09-13T08:35:35Z</time>
      </trkpt>
      <trkpt lat="43.18974" lon="6.6168">
        <ele>162</ele>
        <time>2011-09-13T08:35:35Z</time>
      </trkpt>
      <trkpt lat="43.18984" lon="6.61688">
        <ele>161</ele>
        <time>2011-09-13T08:35:35Z</time>
      </trkpt>
      <trkpt lat="43.19004" lon="6.61695">
        <ele>160</ele>
        <time>2011-09-13T08:35:35Z</time>
      </trkpt>
      <trkpt lat="43.19014" lon="6.61711">
        <ele>157</ele>
        <time>2011-09-13T08:35:35Z</time>
      </trkpt>
      <trkpt lat="43.19029" lon="6.61716">
        <ele>154</ele>
        <time>2011-09-13T08:35:35Z</time>
      </trkpt>
      <trkpt lat="43.19045" lon="6.61717">
        <ele>153</ele>
        <time>2011-09-13T08:35:35Z</time>
      </trkpt>
      <trkpt lat="43.19089" lon="6.61711">
        <ele>150</ele>
        <time>2011-09-13T08:35:35Z</time>
      </trkpt>
      <trkpt lat="43.19134" lon="6.61701">
        <ele>154</ele>
        <time>2011-09-13T08:35:35Z</time>
      </trkpt>
      <trkpt lat="43.19142" lon="6.61708">
        <ele>155</ele>
        <time>2011-09-13T08:35:35Z</time>
      </trkpt>
      <trkpt lat="43.19137" lon="6.6175">
        <ele>152</ele>
        <time>2011-09-13T08:35:35Z</time>
      </trkpt>
      <trkpt lat="43.19142" lon="6.61783">
        <ele>154</ele>
        <time>2011-09-13T08:35:35Z</time>
      </trkpt>
      <trkpt lat="43.19131" lon="6.61824">
        <ele>152</ele>
        <time>2011-09-13T08:35:35Z</time>
      </trkpt>
      <trkpt lat="43.19131" lon="6.61841">
        <ele>152</ele>
        <time>2011-09-13T08:35:35Z</time>
      </trkpt>
      <trkpt lat="43.19141" lon="6.6188">
        <ele>154</ele>
        <time>2011-09-13T08:35:35Z</time>
      </trkpt>
      <trkpt lat="43.19163" lon="6.61915">
        <ele>157</ele>
        <time>2011-09-13T08:35:35Z</time>
      </trkpt>
      <trkpt lat="43.19158" lon="6.61971">
        <ele>154</ele>
        <time>2011-09-13T08:35:35Z</time>
      </trkpt>
      <trkpt lat="43.19158" lon="6.62009">
        <ele>153</ele>
        <time>2011-09-13T08:35:35Z</time>
      </trkpt>
      <trkpt lat="43.19151" lon="6.6203">
        <ele>154</ele>
        <time>2011-09-13T08:35:35Z</time>
      </trkpt>
      <trkpt lat="43.19117" lon="6.62094">
        <ele>154</ele>
        <time>2011-09-13T08:35:35Z</time>
      </trkpt>
      <trkpt lat="43.19092" lon="6.62123">
        <ele>152</ele>
        <time>2011-09-13T08:35:35Z</time>
      </trkpt>
      <trkpt lat="43.19064" lon="6.62166">
        <ele>148</ele>
        <time>2011-09-13T08:35:35Z</time>
      </trkpt>
      <trkpt lat="43.19054" lon="6.62193">
        <ele>146</ele>
        <time>2011-09-13T08:35:35Z</time>
      </trkpt>
      <trkpt lat="43.19056" lon="6.62231">
        <ele>150</ele>
        <time>2011-09-13T08:35:35Z</time>
      </trkpt>
      <trkpt lat="43.19049" lon="6.62257">
        <ele>151</ele>
        <time>2011-09-13T08:35:35Z</time>
      </trkpt>
      <trkpt lat="43.19042" lon="6.62269">
        <ele>151</ele>
        <time>2011-09-13T08:35:35Z</time>
      </trkpt>
      <trkpt lat="43.19024" lon="6.62283">
        <ele>151</ele>
        <time>2011-09-13T08:35:35Z</time>
      </trkpt>
      <trkpt lat="43.19001" lon="6.62315">
        <ele>152</ele>
        <time>2011-09-13T08:35:35Z</time>
      </trkpt>
      <trkpt lat="43.18976" lon="6.62362">
        <ele>154</ele>
        <time>2011-09-13T08:35:35Z</time>
      </trkpt>
      <trkpt lat="43.18979" lon="6.62378">
        <ele>153</ele>
        <time>2011-09-13T08:35:35Z</time>
      </trkpt>
      <trkpt lat="43.18986" lon="6.62386">
        <ele>153</ele>
        <time>2011-09-13T08:35:35Z</time>
      </trkpt>
      <trkpt lat="43.19037" lon="6.62418">
        <ele>148</ele>
        <time>2011-09-13T08:35:35Z</time>
      </trkpt>
      <trkpt lat="43.19062" lon="6.62428">
        <ele>144</ele>
        <time>2011-09-13T08:35:35Z</time>
      </trkpt>
      <trkpt lat="43.19101" lon="6.6243">
        <ele>137</ele>
        <time>2011-09-13T08:35:35Z</time>
      </trkpt>
      <trkpt lat="43.19131" lon="6.62413">
        <ele>135</ele>
        <time>2011-09-13T08:35:35Z</time>
      </trkpt>
      <trkpt lat="43.19152" lon="6.6241">
        <ele>132</ele>
        <time>2011-09-13T08:35:35Z</time>
      </trkpt>
      <trkpt lat="43.19167" lon="6.62415">
        <ele>130</ele>
        <time>2011-09-13T08:35:35Z</time>
      </trkpt>
      <trkpt lat="43.19184" lon="6.62434">
        <ele>126</ele>
        <time>2011-09-13T08:35:35Z</time>
      </trkpt>
      <trkpt lat="43.19196" lon="6.62483">
        <ele>120</ele>
        <time>2011-09-13T08:35:35Z</time>
      </trkpt>
      <trkpt lat="43.19213" lon="6.6249">
        <ele>119</ele>
        <time>2011-09-13T08:35:35Z</time>
      </trkpt>
      <trkpt lat="43.1921" lon="6.62499">
        <ele>119</ele>
        <time>2011-09-13T08:35:35Z</time>
      </trkpt>
      <trkpt lat="43.192" lon="6.62506">
        <ele>119</ele>
        <time>2011-09-13T08:35:35Z</time>
      </trkpt>
      <trkpt lat="43.19171" lon="6.62513">
        <ele>117</ele>
        <time>2011-09-13T08:35:35Z</time>
      </trkpt>
      <trkpt lat="43.1915" lon="6.62525">
        <ele>115</ele>
        <time>2011-09-13T08:35:35Z</time>
      </trkpt>
      <trkpt lat="43.1913" lon="6.62565">
        <ele>110</ele>
        <time>2011-09-13T08:35:35Z</time>
      </trkpt>
      <trkpt lat="43.1911" lon="6.62588">
        <ele>105</ele>
        <time>2011-09-13T08:35:35Z</time>
      </trkpt>
      <trkpt lat="43.19104" lon="6.62603">
        <ele>102</ele>
        <time>2011-09-13T08:35:35Z</time>
      </trkpt>
      <trkpt lat="43.19081" lon="6.62627">
        <ele>101</ele>
        <time>2011-09-13T08:35:35Z</time>
      </trkpt>
      <trkpt lat="43.19039" lon="6.62632">
        <ele>99</ele>
        <time>2011-09-13T08:35:35Z</time>
      </trkpt>
      <trkpt lat="43.19033" lon="6.62629">
        <ele>99</ele>
        <time>2011-09-13T08:35:35Z</time>
      </trkpt>
      <trkpt lat="43.19018" lon="6.62609">
        <ele>101</ele>
        <time>2011-09-13T08:35:35Z</time>
      </trkpt>
      <trkpt lat="43.18998" lon="6.62607">
        <ele>99</ele>
        <time>2011-09-13T08:35:35Z</time>
      </trkpt>
      <trkpt lat="43.18989" lon="6.62626">
        <ele>95</ele>
        <time>2011-09-13T08:35:35Z</time>
      </trkpt>
      <trkpt lat="43.1899" lon="6.62632">
        <ele>94</ele>
        <time>2011-09-13T08:35:35Z</time>
      </trkpt>
      <trkpt lat="43.18978" lon="6.62679">
        <ele>86</ele>
        <time>2011-09-13T08:35:35Z</time>
      </trkpt>
      <trkpt lat="43.18977" lon="6.62694">
        <ele>84</ele>
        <time>2011-09-13T08:35:35Z</time>
      </trkpt>
      <trkpt lat="43.1899" lon="6.62717">
        <ele>82</ele>
        <time>2011-09-13T08:35:35Z</time>
      </trkpt>
      <trkpt lat="43.18986" lon="6.62728">
        <ele>80</ele>
        <time>2011-09-13T08:35:35Z</time>
      </trkpt>
      <trkpt lat="43.1898" lon="6.62734">
        <ele>81</ele>
        <time>2011-09-13T08:35:35Z</time>
      </trkpt>
      <trkpt lat="43.18953" lon="6.62726">
        <ele>78</ele>
        <time>2011-09-13T08:35:35Z</time>
      </trkpt>
      <trkpt lat="43.18948" lon="6.62719">
        <ele>78</ele>
        <time>2011-09-13T08:35:35Z</time>
      </trkpt>
      <trkpt lat="43.18939" lon="6.62721">
        <ele>78</ele>
        <time>2011-09-13T08:35:35Z</time>
      </trkpt>
      <trkpt lat="43.18936" lon="6.62728">
        <ele>78</ele>
        <time>2011-09-13T08:35:35Z</time>
      </trkpt>
      <trkpt lat="43.18906" lon="6.62751">
        <ele>79</ele>
        <time>2011-09-13T08:35:35Z</time>
      </trkpt>
      <trkpt lat="43.18869" lon="6.62786">
        <ele>75</ele>
        <time>2011-09-13T08:35:35Z</time>
      </trkpt>
      <trkpt lat="43.18861" lon="6.62804">
        <ele>76</ele>
        <time>2011-09-13T08:35:35Z</time>
      </trkpt>
      <trkpt lat="43.18826" lon="6.62832">
        <ele>74</ele>
        <time>2011-09-13T08:35:35Z</time>
      </trkpt>
      <trkpt lat="43.18817" lon="6.62835">
        <ele>72</ele>
        <time>2011-09-13T08:35:35Z</time>
      </trkpt>
      <trkpt lat="43.18805" lon="6.62842">
        <ele>72</ele>
        <time>2011-09-13T08:35:35Z</time>
      </trkpt>
      <trkpt lat="43.18756" lon="6.6286">
        <ele>66</ele>
        <time>2011-09-13T08:35:35Z</time>
      </trkpt>
      <trkpt lat="43.18739" lon="6.62861">
        <ele>64</ele>
        <time>2011-09-13T08:35:35Z</time>
      </trkpt>
      <trkpt lat="43.18725" lon="6.62855">
        <ele>62</ele>
        <time>2011-09-13T08:35:35Z</time>
      </trkpt>
      <trkpt lat="43.18712" lon="6.6284">
        <ele>60</ele>
        <time>2011-09-13T08:35:35Z</time>
      </trkpt>
      <trkpt lat="43.18704" lon="6.62841">
        <ele>60</ele>
        <time>2011-09-13T08:35:35Z</time>
      </trkpt>
      <trkpt lat="43.18675" lon="6.62871">
        <ele>59</ele>
        <time>2011-09-13T08:35:35Z</time>
      </trkpt>
      <trkpt lat="43.18657" lon="6.62869">
        <ele>58</ele>
        <time>2011-09-13T08:35:35Z</time>
      </trkpt>
      <trkpt lat="43.18634" lon="6.62877">
        <ele>55</ele>
        <time>2011-09-13T08:35:35Z</time>
      </trkpt>
      <trkpt lat="43.18601" lon="6.62911">
        <ele>53</ele>
        <time>2011-09-13T08:35:35Z</time>
      </trkpt>
      <trkpt lat="43.18579" lon="6.62916">
        <ele>52</ele>
        <time>2011-09-13T08:35:35Z</time>
      </trkpt>
      <trkpt lat="43.18555" lon="6.62914">
        <ele>50</ele>
        <time>2011-09-13T08:35:35Z</time>
      </trkpt>
      <trkpt lat="43.1853" lon="6.6293">
        <ele>48</ele>
        <time>2011-09-13T08:35:35Z</time>
      </trkpt>
      <trkpt lat="43.18489" lon="6.62943">
        <ele>45</ele>
        <time>2011-09-13T08:35:35Z</time>
      </trkpt>
      <trkpt lat="43.18477" lon="6.62942">
        <ele>45</ele>
        <time>2011-09-13T08:35:35Z</time>
      </trkpt>
      <trkpt lat="43.1846" lon="6.62946">
        <ele>44</ele>
        <time>2011-09-13T08:35:35Z</time>
      </trkpt>
      <trkpt lat="43.18438" lon="6.62955">
        <ele>44</ele>
        <time>2011-09-13T08:35:35Z</time>
      </trkpt>
      <trkpt lat="43.18426" lon="6.62953">
        <ele>43</ele>
        <time>2011-09-13T08:35:35Z</time>
      </trkpt>
      <trkpt lat="43.18404" lon="6.62941">
        <ele>42</ele>
        <time>2011-09-13T08:35:35Z</time>
      </trkpt>
      <trkpt lat="43.18396" lon="6.62941">
        <ele>41</ele>
        <time>2011-09-13T08:35:35Z</time>
      </trkpt>
      <trkpt lat="43.18379" lon="6.62951">
        <ele>40</ele>
        <time>2011-09-13T08:35:35Z</time>
      </trkpt>
      <trkpt lat="43.18358" lon="6.62951">
        <ele>40</ele>
        <time>2011-09-13T08:35:35Z</time>
      </trkpt>
      <trkpt lat="43.18319" lon="6.62942">
        <ele>38</ele>
        <time>2011-09-13T08:35:35Z</time>
      </trkpt>
      <trkpt lat="43.18298" lon="6.62929">
        <ele>37</ele>
        <time>2011-09-13T08:35:35Z</time>
      </trkpt>
      <trkpt lat="43.18271" lon="6.62931">
        <ele>36</ele>
        <time>2011-09-13T08:35:35Z</time>
      </trkpt>
      <trkpt lat="43.18262" lon="6.62937">
        <ele>35</ele>
        <time>2011-09-13T08:35:35Z</time>
      </trkpt>
      <trkpt lat="43.1823" lon="6.6293">
        <ele>33</ele>
        <time>2011-09-13T08:35:35Z</time>
      </trkpt>
      <trkpt lat="43.18222" lon="6.62943">
        <ele>34</ele>
        <time>2011-09-13T08:35:35Z</time>
      </trkpt>
      <trkpt lat="43.18221" lon="6.62955">
        <ele>35</ele>
        <time>2011-09-13T08:35:35Z</time>
      </trkpt>
      <trkpt lat="43.18214" lon="6.62964">
        <ele>36</ele>
        <time>2011-09-13T08:35:35Z</time>
      </trkpt>
      <trkpt lat="43.18207" lon="6.62965">
        <ele>36</ele>
        <time>2011-09-13T08:35:35Z</time>
      </trkpt>
      <trkpt lat="43.18198" lon="6.62959">
        <ele>36</ele>
        <time>2011-09-13T08:35:35Z</time>
      </trkpt>
      <trkpt lat="43.18151" lon="6.62991">
        <ele>40</ele>
        <time>2011-09-13T08:35:35Z</time>
      </trkpt>
      <trkpt lat="43.18154" lon="6.62991">
        <ele>40</ele>
        <time>2011-09-13T08:35:35Z</time>
      </trkpt>
      <trkpt lat="43.18138" lon="6.6302">
        <ele>42</ele>
        <time>2011-09-13T08:35:35Z</time>
      </trkpt>
      <trkpt lat="43.18127" lon="6.63063">
        <ele>45</ele>
        <time>2011-09-13T08:35:35Z</time>
      </trkpt>
      <trkpt lat="43.18091" lon="6.63138">
        <ele>49</ele>
        <time>2011-09-13T08:35:35Z</time>
      </trkpt>
      <trkpt lat="43.18069" lon="6.632">
        <ele>57</ele>
        <time>2011-09-13T08:35:35Z</time>
      </trkpt>
      <trkpt lat="43.18059" lon="6.63216">
        <ele>59</ele>
        <time>2011-09-13T08:35:35Z</time>
      </trkpt>
      <trkpt lat="43.18034" lon="6.63234">
        <ele>60</ele>
        <time>2011-09-13T08:35:35Z</time>
      </trkpt>
      <trkpt lat="43.18012" lon="6.63258">
        <ele>61</ele>
        <time>2011-09-13T08:35:35Z</time>
      </trkpt>
      <trkpt lat="43.17983" lon="6.63273">
        <ele>59</ele>
        <time>2011-09-13T08:35:35Z</time>
      </trkpt>
      <trkpt lat="43.17978" lon="6.63272">
        <ele>58</ele>
        <time>2011-09-13T08:35:35Z</time>
      </trkpt>
      <trkpt lat="43.1797" lon="6.6328">
        <ele>58</ele>
        <time>2011-09-13T08:35:35Z</time>
      </trkpt>
      <trkpt lat="43.17947" lon="6.63305">
        <ele>57</ele>
        <time>2011-09-13T08:35:35Z</time>
      </trkpt>
      <trkpt lat="43.17925" lon="6.63324">
        <ele>56</ele>
        <time>2011-09-13T08:35:35Z</time>
      </trkpt>
      <trkpt lat="43.17871" lon="6.63393">
        <ele>59</ele>
        <time>2011-09-13T08:35:35Z</time>
      </trkpt>
      <trkpt lat="43.17865" lon="6.63397">
        <ele>59</ele>
        <time>2011-09-13T08:35:35Z</time>
      </trkpt>
      <trkpt lat="43.17852" lon="6.63399">
        <ele>58</ele>
        <time>2011-09-13T08:35:35Z</time>
      </trkpt>
      <trkpt lat="43.17845" lon="6.63406">
        <ele>59</ele>
        <time>2011-09-13T08:35:35Z</time>
      </trkpt>
      <trkpt lat="43.17831" lon="6.63433">
        <ele>60</ele>
        <time>2011-09-13T08:35:35Z</time>
      </trkpt>
      <trkpt lat="43.17819" lon="6.63451">
        <ele>60</ele>
        <time>2011-09-13T08:35:35Z</time>
      </trkpt>
      <trkpt lat="43.17798" lon="6.63465">
        <ele>60</ele>
        <time>2011-09-13T08:35:35Z</time>
      </trkpt>
      <trkpt lat="43.1778" lon="6.63469">
        <ele>60</ele>
        <time>2011-09-13T08:35:35Z</time>
      </trkpt>
      <trkpt lat="43.17774" lon="6.63467">
        <ele>59</ele>
        <time>2011-09-13T08:35:35Z</time>
      </trkpt>
      <trkpt lat="43.17747" lon="6.6349">
        <ele>59</ele>
        <time>2011-09-13T08:35:35Z</time>
      </trkpt>
      <trkpt lat="43.17734" lon="6.63509">
        <ele>58</ele>
        <time>2011-09-13T08:35:35Z</time>
      </trkpt>
      <trkpt lat="43.17721" lon="6.63558">
        <ele>56</ele>
        <time>2011-09-13T08:35:35Z</time>
      </trkpt>
      <trkpt lat="43.17678" lon="6.63639">
        <ele>46</ele>
        <time>2011-09-13T08:35:35Z</time>
      </trkpt>
      <trkpt lat="43.1765" lon="6.63727">
        <ele>41</ele>
        <time>2011-09-13T08:35:35Z</time>
      </trkpt>
      <trkpt lat="43.17641" lon="6.6374">
        <ele>39</ele>
        <time>2011-09-13T08:35:35Z</time>
      </trkpt>
      <trkpt lat="43.17636" lon="6.63811">
        <ele>37</ele>
        <time>2011-09-13T08:35:35Z</time>
      </trkpt>
      <trkpt lat="43.17623" lon="6.63852">
        <ele>33</ele>
        <time>2011-09-13T08:35:35Z</time>
      </trkpt>
      <trkpt lat="43.17623" lon="6.63861">
        <ele>33</ele>
        <time>2011-09-13T08:35:35Z</time>
      </trkpt>
      <trkpt lat="43.17601" lon="6.63905">
        <ele>28</ele>
        <time>2011-09-13T08:35:35Z</time>
      </trkpt>
      <trkpt lat="43.17568" lon="6.63952">
        <ele>19</ele>
        <time>2011-09-13T08:35:35Z</time>
      </trkpt>
      <trkpt lat="43.1755" lon="6.63997">
        <ele>15</ele>
        <time>2011-09-13T08:35:35Z</time>
      </trkpt>
      <trkpt lat="43.17544" lon="6.64002">
        <ele>14</ele>
        <time>2011-09-13T08:35:35Z</time>
      </trkpt>
      <trkpt lat="43.17494" lon="6.6398">
        <ele>9</ele>
        <time>2011-09-13T08:35:35Z</time>
      </trkpt>
      <trkpt lat="43.17467" lon="6.63981">
        <ele>7</ele>
        <time>2011-09-13T08:35:35Z</time>
      </trkpt>
      <trkpt lat="43.1744" lon="6.63986">
        <ele>6</ele>
        <time>2011-09-13T08:35:35Z</time>
      </trkpt>
      <trkpt lat="43.17395" lon="6.63961">
        <ele>6</ele>
        <time>2011-09-13T08:35:35Z</time>
      </trkpt>
      <trkpt lat="43.1738" lon="6.63945">
        <ele>9</ele>
        <time>2011-09-13T08:35:35Z</time>
      </trkpt>
      <trkpt lat="43.17362" lon="6.63941">
        <ele>9</ele>
        <time>2011-09-13T08:35:35Z</time>
      </trkpt>
      <trkpt lat="43.17344" lon="6.63926">
        <ele>10</ele>
        <time>2011-09-13T08:35:35Z</time>
      </trkpt>
      <trkpt lat="43.17325" lon="6.63916">
        <ele>11</ele>
        <time>2011-09-13T08:35:35Z</time>
      </trkpt>
      <trkpt lat="43.17283" lon="6.63935">
        <ele>5</ele>
        <time>2011-09-13T08:35:35Z</time>
      </trkpt>
      <trkpt lat="43.17282" lon="6.6393">
        <ele>6</ele>
        <time>2011-09-13T08:35:35Z</time>
      </trkpt>
      <trkpt lat="43.17275" lon="6.63926">
        <ele>5</ele>
        <time>2011-09-13T08:35:35Z</time>
      </trkpt>
      <trkpt lat="43.17263" lon="6.63911">
        <ele>6</ele>
        <time>2011-09-13T08:35:35Z</time>
      </trkpt>
      <trkpt lat="43.17268" lon="6.63892">
        <ele>8</ele>
        <time>2011-09-13T08:35:35Z</time>
      </trkpt>
      <trkpt lat="43.1725" lon="6.63831">
        <ele>12</ele>
        <time>2011-09-13T08:35:35Z</time>
      </trkpt>
      <trkpt lat="43.17245" lon="6.63778">
        <ele>13</ele>
        <time>2011-09-13T08:35:35Z</time>
      </trkpt>
      <trkpt lat="43.17251" lon="6.63768">
        <ele>16</ele>
        <time>2011-09-13T08:35:35Z</time>
      </trkpt>
      <trkpt lat="43.17253" lon="6.63727">
        <ele>11</ele>
        <time>2011-09-13T08:35:35Z</time>
      </trkpt>
      <trkpt lat="43.17258" lon="6.63723">
        <ele>12</ele>
        <time>2011-09-13T08:35:35Z</time>
      </trkpt>
      <trkpt lat="43.17265" lon="6.63706">
        <ele>12</ele>
        <time>2011-09-13T08:35:35Z</time>
      </trkpt>
      <trkpt lat="43.17271" lon="6.63674">
        <ele>10</ele>
        <time>2011-09-13T08:35:35Z</time>
      </trkpt>
      <trkpt lat="43.17267" lon="6.63647">
        <ele>6</ele>
        <time>2011-09-13T08:35:35Z</time>
      </trkpt>
      <trkpt lat="43.17269" lon="6.63612">
        <ele>5</ele>
        <time>2011-09-13T08:35:35Z</time>
      </trkpt>
      <trkpt lat="43.17274" lon="6.636">
        <ele>6</ele>
        <time>2011-09-13T08:35:35Z</time>
      </trkpt>
      <trkpt lat="43.17281" lon="6.63595">
        <ele>7</ele>
        <time>2011-09-13T08:35:35Z</time>
      </trkpt>
      <trkpt lat="43.17291" lon="6.63576">
        <ele>8</ele>
        <time>2011-09-13T08:35:35Z</time>
      </trkpt>
      <trkpt lat="43.17293" lon="6.63549">
        <ele>7</ele>
        <time>2011-09-13T08:35:35Z</time>
      </trkpt>
      <trkpt lat="43.17285" lon="6.63523">
        <ele>5</ele>
        <time>2011-09-13T08:35:35Z</time>
      </trkpt>
      <trkpt lat="43.17275" lon="6.63447">
        <ele>2</ele>
        <time>2011-09-13T08:35:35Z</time>
      </trkpt>
      <trkpt lat="43.17269" lon="6.63434">
        <ele>2</ele>
        <time>2011-09-13T08:35:35Z</time>
      </trkpt>
      <trkpt lat="43.17267" lon="6.63414">
        <ele>2</ele>
        <time>2011-09-13T08:35:35Z</time>
      </trkpt>
      <trkpt lat="43.17243" lon="6.63315">
        <ele>2</ele>
        <time>2011-09-13T08:35:35Z</time>
      </trkpt>
      <trkpt lat="43.17224" lon="6.63269">
        <ele>5</ele>
        <time>2011-09-13T08:35:35Z</time>
      </trkpt>
      <trkpt lat="43.17219" lon="6.63248">
        <ele>8</ele>
        <time>2011-09-13T08:35:35Z</time>
      </trkpt>
      <trkpt lat="43.17188" lon="6.63216">
        <ele>12</ele>
        <time>2011-09-13T08:35:35Z</time>
      </trkpt>
      <trkpt lat="43.1716" lon="6.63199">
        <ele>14</ele>
        <time>2011-09-13T08:35:35Z</time>
      </trkpt>
      <trkpt lat="43.17129" lon="6.63205">
        <ele>9</ele>
        <time>2011-09-13T08:35:35Z</time>
      </trkpt>
      <trkpt lat="43.17114" lon="6.63203">
        <ele>7</ele>
        <time>2011-09-13T08:35:35Z</time>
      </trkpt>
      <trkpt lat="43.17108" lon="6.63196">
        <ele>7</ele>
        <time>2011-09-13T08:35:35Z</time>
      </trkpt>
      <trkpt lat="43.17107" lon="6.63179">
        <ele>9</ele>
        <time>2011-09-13T08:35:35Z</time>
      </trkpt>
      <trkpt lat="43.17123" lon="6.63139">
        <ele>19</ele>
        <time>2011-09-13T08:35:35Z</time>
      </trkpt>
      <trkpt lat="43.17128" lon="6.63096">
        <ele>22</ele>
        <time>2011-09-13T08:35:35Z</time>
      </trkpt>
      <trkpt lat="43.17119" lon="6.63068">
        <ele>21</ele>
        <time>2011-09-13T08:35:35Z</time>
      </trkpt>
      <trkpt lat="43.17085" lon="6.6302">
        <ele>20</ele>
        <time>2011-09-13T08:35:35Z</time>
      </trkpt>
      <trkpt lat="43.17064" lon="6.63002">
        <ele>18</ele>
        <time>2011-09-13T08:35:35Z</time>
      </trkpt>
      <trkpt lat="43.17059" lon="6.62992">
        <ele>20</ele>
        <time>2011-09-13T08:35:35Z</time>
      </trkpt>
      <trkpt lat="43.17046" lon="6.62984">
        <ele>20</ele>
        <time>2011-09-13T08:35:35Z</time>
      </trkpt>
      <trkpt lat="43.17021" lon="6.62989">
        <ele>14</ele>
        <time>2011-09-13T08:35:35Z</time>
      </trkpt>
      <trkpt lat="43.17011" lon="6.62979">
        <ele>15</ele>
        <time>2011-09-13T08:35:35Z</time>
      </trkpt>
      <trkpt lat="43.17007" lon="6.62987">
        <ele>11</ele>
        <time>2011-09-13T08:35:35Z</time>
      </trkpt>
      <trkpt lat="43.16993" lon="6.62969">
        <ele>13</ele>
        <time>2011-09-13T08:35:35Z</time>
      </trkpt>
      <trkpt lat="43.17009" lon="6.62947">
        <ele>23</ele>
        <time>2011-09-13T08:35:35Z</time>
      </trkpt>
      <trkpt lat="43.16998" lon="6.62891">
        <ele>40</ele>
        <time>2011-09-13T08:35:35Z</time>
      </trkpt>
      <trkpt lat="43.16981" lon="6.62874">
        <ele>39</ele>
        <time>2011-09-13T08:35:35Z</time>
      </trkpt>
      <trkpt lat="43.16981" lon="6.62859">
        <ele>44</ele>
        <time>2011-09-13T08:35:35Z</time>
      </trkpt>
      <trkpt lat="43.16956" lon="6.6279">
        <ele>44</ele>
        <time>2011-09-13T08:35:35Z</time>
      </trkpt>
      <trkpt lat="43.16937" lon="6.62805">
        <ele>30</ele>
        <time>2011-09-13T08:35:35Z</time>
      </trkpt>
      <trkpt lat="43.16927" lon="6.62807">
        <ele>25</ele>
        <time>2011-09-13T08:35:35Z</time>
      </trkpt>
      <trkpt lat="43.16906" lon="6.62778">
        <ele>21</ele>
        <time>2011-09-13T08:35:35Z</time>
      </trkpt>
      <trkpt lat="43.1691" lon="6.62775">
        <ele>24</ele>
        <time>2011-09-13T08:35:35Z</time>
      </trkpt>
      <trkpt lat="43.16906" lon="6.62768">
        <ele>23</ele>
        <time>2011-09-13T08:35:35Z</time>
      </trkpt>
      <trkpt lat="43.16878" lon="6.62749">
        <ele>16</ele>
        <time>2011-09-13T08:35:35Z</time>
      </trkpt>
      <trkpt lat="43.16867" lon="6.6273">
        <ele>19</ele>
        <time>2011-09-13T08:35:35Z</time>
      </trkpt>
      <trkpt lat="43.16853" lon="6.62725">
        <ele>17</ele>
        <time>2011-09-13T08:35:35Z</time>
      </trkpt>
      <trkpt lat="43.16787" lon="6.62656">
        <ele>31</ele>
        <time>2011-09-13T08:35:35Z</time>
      </trkpt>
      <trkpt lat="43.16785" lon="6.62647">
        <ele>34</ele>
        <time>2011-09-13T08:35:35Z</time>
      </trkpt>
      <trkpt lat="43.16765" lon="6.62627">
        <ele>38</ele>
        <time>2011-09-13T08:35:35Z</time>
      </trkpt>
      <trkpt lat="43.16757" lon="6.62632">
        <ele>34</ele>
        <time>2011-09-13T08:35:35Z</time>
      </trkpt>
      <trkpt lat="43.16722" lon="6.62634">
        <ele>26</ele>
        <time>2011-09-13T08:35:35Z</time>
      </trkpt>
      <trkpt lat="43.167" lon="6.62624">
        <ele>24</ele>
        <time>2011-09-13T08:35:35Z</time>
      </trkpt>
      <trkpt lat="43.16682" lon="6.62622">
        <ele>22</ele>
        <time>2011-09-13T08:35:35Z</time>
      </trkpt>
      <trkpt lat="43.16677" lon="6.62618">
        <ele>22</ele>
        <time>2011-09-13T08:35:35Z</time>
      </trkpt>
      <trkpt lat="43.16675" lon="6.62601">
        <ele>24</ele>
        <time>2011-09-13T08:35:35Z</time>
      </trkpt>
      <trkpt lat="43.16654" lon="6.62577">
        <ele>23</ele>
        <time>2011-09-13T08:35:35Z</time>
      </trkpt>
      <trkpt lat="43.16635" lon="6.62548">
        <ele>23</ele>
        <time>2011-09-13T08:35:35Z</time>
      </trkpt>
      <trkpt lat="43.16635" lon="6.62532">
        <ele>24</ele>
        <time>2011-09-13T08:35:35Z</time>
      </trkpt>
      <trkpt lat="43.16642" lon="6.62513">
        <ele>25</ele>
        <time>2011-09-13T08:35:35Z</time>
      </trkpt>
      <trkpt lat="43.16641" lon="6.62478">
        <ele>24</ele>
        <time>2011-09-13T08:35:35Z</time>
      </trkpt>
      <trkpt lat="43.16638" lon="6.62466">
        <ele>23</ele>
        <time>2011-09-13T08:35:35Z</time>
      </trkpt>
      <trkpt lat="43.16616" lon="6.62439">
        <ele>18</ele>
        <time>2011-09-13T08:35:35Z</time>
      </trkpt>
      <trkpt lat="43.16609" lon="6.62424">
        <ele>17</ele>
        <time>2011-09-13T08:35:35Z</time>
      </trkpt>
      <trkpt lat="43.16603" lon="6.62407">
        <ele>15</ele>
        <time>2011-09-13T08:35:35Z</time>
      </trkpt>
      <trkpt lat="43.16604" lon="6.62394">
        <ele>13</ele>
        <time>2011-09-13T08:35:35Z</time>
      </trkpt>
      <trkpt lat="43.16599" lon="6.6237">
        <ele>11</ele>
        <time>2011-09-13T08:35:35Z</time>
      </trkpt>
      <trkpt lat="43.16576" lon="6.62344">
        <ele>9</ele>
        <time>2011-09-13T08:35:35Z</time>
      </trkpt>
      <trkpt lat="43.16558" lon="6.62307">
        <ele>11</ele>
        <time>2011-09-13T08:35:35Z</time>
      </trkpt>
      <trkpt lat="43.1652" lon="6.62275">
        <ele>11</ele>
        <time>2011-09-13T08:35:35Z</time>
      </trkpt>
      <trkpt lat="43.16514" lon="6.62262">
        <ele>13</ele>
        <time>2011-09-13T08:35:35Z</time>
      </trkpt>
      <trkpt lat="43.16469" lon="6.62211">
        <ele>13</ele>
        <time>2011-09-13T08:35:35Z</time>
      </trkpt>
      <trkpt lat="43.16453" lon="6.62199">
        <ele>13</ele>
        <time>2011-09-13T08:35:35Z</time>
      </trkpt>
      <trkpt lat="43.16444" lon="6.62197">
        <ele>12</ele>
        <time>2011-09-13T08:35:35Z</time>
      </trkpt>
      <trkpt lat="43.1643" lon="6.62186">
        <ele>11</ele>
        <time>2011-09-13T08:35:35Z</time>
      </trkpt>
      <trkpt lat="43.16409" lon="6.62189">
        <ele>9</ele>
        <time>2011-09-13T08:35:35Z</time>
      </trkpt>
      <trkpt lat="43.16398" lon="6.62181">
        <ele>10</ele>
        <time>2011-09-13T08:35:35Z</time>
      </trkpt>
      <trkpt lat="43.16386" lon="6.62179">
        <ele>9</ele>
        <time>2011-09-13T08:35:35Z</time>
      </trkpt>
      <trkpt lat="43.16379" lon="6.62166">
        <ele>12</ele>
        <time>2011-09-13T08:35:35Z</time>
      </trkpt>
      <trkpt lat="43.16354" lon="6.62148">
        <ele>12</ele>
        <time>2011-09-13T08:35:35Z</time>
      </trkpt>
      <trkpt lat="43.16343" lon="6.62154">
        <ele>9</ele>
        <time>2011-09-13T08:35:35Z</time>
      </trkpt>
      <trkpt lat="43.1634" lon="6.62158">
        <ele>7</ele>
        <time>2011-09-13T08:35:35Z</time>
      </trkpt>
      <trkpt lat="43.16328" lon="6.62146">
        <ele>9</ele>
        <time>2011-09-13T08:35:35Z</time>
      </trkpt>
      <trkpt lat="43.16319" lon="6.62143">
        <ele>9</ele>
        <time>2011-09-13T08:35:35Z</time>
      </trkpt>
      <trkpt lat="43.16315" lon="6.62134">
        <ele>11</ele>
        <time>2011-09-13T08:35:35Z</time>
      </trkpt>
      <trkpt lat="43.16296" lon="6.62135">
        <ele>10</ele>
        <time>2011-09-13T08:35:35Z</time>
      </trkpt>
      <trkpt lat="43.1627" lon="6.62125">
        <ele>16</ele>
        <time>2011-09-13T08:35:35Z</time>
      </trkpt>
      <trkpt lat="43.16264" lon="6.62128">
        <ele>16</ele>
        <time>2011-09-13T08:35:35Z</time>
      </trkpt>
      <trkpt lat="43.16252" lon="6.62128">
        <ele>18</ele>
        <time>2011-09-13T08:35:35Z</time>
      </trkpt>
      <trkpt lat="43.16228" lon="6.62149">
        <ele>17</ele>
        <time>2011-09-13T08:35:35Z</time>
      </trkpt>
      <trkpt lat="43.16222" lon="6.62161">
        <ele>16</ele>
        <time>2011-09-13T08:35:35Z</time>
      </trkpt>
      <trkpt lat="43.16187" lon="6.62175">
        <ele>21</ele>
        <time>2011-09-13T08:35:35Z</time>
      </trkpt>
      <trkpt lat="43.16174" lon="6.62197">
        <ele>17</ele>
        <time>2011-09-13T08:35:35Z</time>
      </trkpt>
      <trkpt lat="43.16164" lon="6.62193">
        <ele>21</ele>
        <time>2011-09-13T08:35:35Z</time>
      </trkpt>
      <trkpt lat="43.16141" lon="6.62214">
        <ele>17</ele>
        <time>2011-09-13T08:35:35Z</time>
      </trkpt>
      <trkpt lat="43.16132" lon="6.62209">
        <ele>19</ele>
        <time>2011-09-13T08:35:35Z</time>
      </trkpt>
      <trkpt lat="43.16132" lon="6.62213">
        <ele>18</ele>
        <time>2011-09-13T08:35:35Z</time>
      </trkpt>
      <trkpt lat="43.16106" lon="6.62199">
        <ele>23</ele>
        <time>2011-09-13T08:35:35Z</time>
      </trkpt>
      <trkpt lat="43.1609" lon="6.62181">
        <ele>24</ele>
        <time>2011-09-13T08:35:35Z</time>
      </trkpt>
      <trkpt lat="43.16083" lon="6.62178">
        <ele>23</ele>
        <time>2011-09-13T08:35:35Z</time>
      </trkpt>
      <trkpt lat="43.16071" lon="6.62147">
        <ele>34</ele>
        <time>2011-09-13T08:35:35Z</time>
      </trkpt>
      <trkpt lat="43.16077" lon="6.62121">
        <ele>44</ele>
        <time>2011-09-13T08:35:35Z</time>
      </trkpt>
      <trkpt lat="43.16057" lon="6.62075">
        <ele>54</ele>
        <time>2011-09-13T08:35:35Z</time>
      </trkpt>
      <trkpt lat="43.16035" lon="6.62048">
        <ele>56</ele>
        <time>2011-09-13T08:35:35Z</time>
      </trkpt>
      <trkpt lat="43.16008" lon="6.61999">
        <ele>61</ele>
        <time>2011-09-13T08:35:35Z</time>
      </trkpt>
      <trkpt lat="43.16011" lon="6.61994">
        <ele>62</ele>
        <time>2011-09-13T08:35:35Z</time>
      </trkpt>
      <trkpt lat="43.16033" lon="6.61991">
        <ele>68</ele>
        <time>2011-09-13T08:35:35Z</time>
      </trkpt>
      <trkpt lat="43.16052" lon="6.6197">
        <ele>71</ele>
        <time>2011-09-13T08:35:35Z</time>
      </trkpt>
      <trkpt lat="43.16062" lon="6.61975">
        <ele>71</ele>
        <time>2011-09-13T08:35:35Z</time>
      </trkpt>
      <trkpt lat="43.16085" lon="6.61972">
        <ele>73</ele>
        <time>2011-09-13T08:35:35Z</time>
      </trkpt>
      <trkpt lat="43.16094" lon="6.61974">
        <ele>73</ele>
        <time>2011-09-13T08:35:35Z</time>
      </trkpt>
      <trkpt lat="43.16117" lon="6.61985">
        <ele>73</ele>
        <time>2011-09-13T08:35:35Z</time>
      </trkpt>
      <trkpt lat="43.16132" lon="6.61947">
        <ele>75</ele>
        <time>2011-09-13T08:35:35Z</time>
      </trkpt>
      <trkpt lat="43.16147" lon="6.61932">
        <ele>74</ele>
        <time>2011-09-13T08:35:35Z</time>
      </trkpt>
      <trkpt lat="43.16154" lon="6.6193">
        <ele>74</ele>
        <time>2011-09-13T08:35:35Z</time>
      </trkpt>
      <trkpt lat="43.16177" lon="6.61939">
        <ele>73</ele>
        <time>2011-09-13T08:35:35Z</time>
      </trkpt>
      <trkpt lat="43.16185" lon="6.61952">
        <ele>73</ele>
        <time>2011-09-13T08:35:35Z</time>
      </trkpt>
      <trkpt lat="43.16204" lon="6.61942">
        <ele>71</ele>
        <time>2011-09-13T08:35:35Z</time>
      </trkpt>
      <trkpt lat="43.16232" lon="6.6194">
        <ele>68</ele>
        <time>2011-09-13T08:35:35Z</time>
      </trkpt>
      <trkpt lat="43.1627" lon="6.61911">
        <ele>68</ele>
        <time>2011-09-13T08:35:35Z</time>
      </trkpt>
      <trkpt lat="43.16281" lon="6.61891">
        <ele>68</ele>
        <time>2011-09-13T08:35:35Z</time>
      </trkpt>
      <trkpt lat="43.16306" lon="6.61896">
        <ele>69</ele>
        <time>2011-09-13T08:35:35Z</time>
      </trkpt>
      <trkpt lat="43.16327" lon="6.61893">
        <ele>69</ele>
        <time>2011-09-13T08:35:35Z</time>
      </trkpt>
      <trkpt lat="43.16347" lon="6.61877">
        <ele>71</ele>
        <time>2011-09-13T08:35:35Z</time>
      </trkpt>
      <trkpt lat="43.16363" lon="6.61872">
        <ele>72</ele>
        <time>2011-09-13T08:35:35Z</time>
      </trkpt>
      <trkpt lat="43.16382" lon="6.6186">
        <ele>75</ele>
        <time>2011-09-13T08:35:35Z</time>
      </trkpt>
      <trkpt lat="43.16397" lon="6.61853">
        <ele>76</ele>
        <time>2011-09-13T08:35:35Z</time>
      </trkpt>
      <trkpt lat="43.1641" lon="6.61854">
        <ele>77</ele>
        <time>2011-09-13T08:35:35Z</time>
      </trkpt>
      <trkpt lat="43.16452" lon="6.61821">
        <ele>83</ele>
        <time>2011-09-13T08:35:35Z</time>
      </trkpt>
      <trkpt lat="43.16475" lon="6.61817">
        <ele>84</ele>
        <time>2011-09-13T08:35:35Z</time>
      </trkpt>
      <trkpt lat="43.16505" lon="6.61779">
        <ele>87</ele>
        <time>2011-09-13T08:35:35Z</time>
      </trkpt>
      <trkpt lat="43.16567" lon="6.61756">
        <ele>94</ele>
        <time>2011-09-13T08:35:35Z</time>
      </trkpt>
      <trkpt lat="43.16652" lon="6.61658">
        <ele>105</ele>
        <time>2011-09-13T08:35:35Z</time>
      </trkpt>
      <trkpt lat="43.16739" lon="6.6158">
        <ele>119</ele>
        <time>2011-09-13T08:35:35Z</time>
      </trkpt>
      <trkpt lat="43.16749" lon="6.6149">
        <ele>104</ele>
        <time>2011-09-13T08:35:35Z</time>
      </trkpt>
      <trkpt lat="43.16768" lon="6.61417">
        <ele>97</ele>
        <time>2011-09-13T08:35:35Z</time>
      </trkpt>
      <trkpt lat="43.16809" lon="6.61357">
        <ele>99</ele>
        <time>2011-09-13T08:35:35Z</time>
      </trkpt>
      <trkpt lat="43.16852" lon="6.61331">
        <ele>104</ele>
        <time>2011-09-13T08:35:35Z</time>
      </trkpt>
      <trkpt lat="43.16888" lon="6.6128">
        <ele>101</ele>
        <time>2011-09-13T08:35:35Z</time>
      </trkpt>
      <trkpt lat="43.16896" lon="6.61271">
        <ele>101</ele>
        <time>2011-09-13T08:35:35Z</time>
      </trkpt>
      <trkpt lat="43.16907" lon="6.61265">
        <ele>101</ele>
        <time>2011-09-13T08:35:35Z</time>
      </trkpt>
      <trkpt lat="43.16918" lon="6.61223">
        <ele>103</ele>
        <time>2011-09-13T08:35:35Z</time>
      </trkpt>
      <trkpt lat="43.16936" lon="6.61171">
        <ele>101</ele>
        <time>2011-09-13T08:35:35Z</time>
      </trkpt>
      <trkpt lat="43.16938" lon="6.61139">
        <ele>99</ele>
        <time>2011-09-13T08:35:35Z</time>
      </trkpt>
      <trkpt lat="43.16928" lon="6.61109">
        <ele>91</ele>
        <time>2011-09-13T08:35:35Z</time>
      </trkpt>
      <trkpt lat="43.16919" lon="6.61099">
        <ele>86</ele>
        <time>2011-09-13T08:35:35Z</time>
      </trkpt>
      <trkpt lat="43.16926" lon="6.6103">
        <ele>66</ele>
        <time>2011-09-13T08:35:35Z</time>
      </trkpt>
      <trkpt lat="43.16952" lon="6.60949">
        <ele>41</ele>
        <time>2011-09-13T08:35:35Z</time>
      </trkpt>
      <trkpt lat="43.17001" lon="6.60897">
        <ele>32</ele>
        <time>2011-09-13T08:35:35Z</time>
      </trkpt>
      <trkpt lat="43.17021" lon="6.60881">
        <ele>32</ele>
        <time>2011-09-13T08:35:35Z</time>
      </trkpt>
      <trkpt lat="43.17102" lon="6.60855">
        <ele>35</ele>
        <time>2011-09-13T08:35:35Z</time>
      </trkpt>
      <trkpt lat="43.17124" lon="6.60845">
        <ele>25</ele>
        <time>2011-09-13T08:35:35Z</time>
      </trkpt>
      <trkpt lat="43.17164" lon="6.60865">
        <ele>22</ele>
        <time>2011-09-13T08:35:35Z</time>
      </trkpt>
      <trkpt lat="43.17193" lon="6.6087">
        <ele>16</ele>
        <time>2011-09-13T08:35:35Z</time>
      </trkpt>
      <trkpt lat="43.17203" lon="6.60865">
        <ele>14</ele>
        <time>2011-09-13T08:35:35Z</time>
      </trkpt>
      <trkpt lat="43.17226" lon="6.60835">
        <ele>7</ele>
        <time>2011-09-13T08:35:35Z</time>
      </trkpt>
      <trkpt lat="43.17251" lon="6.60842">
        <ele>8</ele>
        <time>2011-09-13T08:35:35Z</time>
      </trkpt>
      <trkpt lat="43.17265" lon="6.60836">
        <ele>7</ele>
        <time>2011-09-13T08:35:35Z</time>
      </trkpt>
      <trkpt lat="43.17306" lon="6.60769">
        <ele>7</ele>
        <time>2011-09-13T08:35:35Z</time>
      </trkpt>
      <trkpt lat="43.17331" lon="6.60749">
        <ele>11</ele>
        <time>2011-09-13T08:35:35Z</time>
      </trkpt>
      <trkpt lat="43.17354" lon="6.60742">
        <ele>19</ele>
        <time>2011-09-13T08:35:35Z</time>
      </trkpt>
      <trkpt lat="43.17356" lon="6.60731">
        <ele>20</ele>
        <time>2011-09-13T08:35:35Z</time>
      </trkpt>
      <trkpt lat="43.17365" lon="6.60717">
        <ele>22</ele>
        <time>2011-09-13T08:35:35Z</time>
      </trkpt>
      <trkpt lat="43.17367" lon="6.60664">
        <ele>20</ele>
        <time>2011-09-13T08:35:35Z</time>
      </trkpt>
      <trkpt lat="43.17372" lon="6.60653">
        <ele>22</ele>
        <time>2011-09-13T08:35:35Z</time>
      </trkpt>
      <trkpt lat="43.17373" lon="6.60626">
        <ele>21</ele>
        <time>2011-09-13T08:35:35Z</time>
      </trkpt>
      <trkpt lat="43.17381" lon="6.60613">
        <ele>24</ele>
        <time>2011-09-13T08:35:35Z</time>
      </trkpt>
      <trkpt lat="43.1738" lon="6.60596">
        <ele>22</ele>
        <time>2011-09-13T08:35:35Z</time>
      </trkpt>
      <trkpt lat="43.17372" lon="6.60591">
        <ele>18</ele>
        <time>2011-09-13T08:35:35Z</time>
      </trkpt>
      <trkpt lat="43.1738" lon="6.60549">
        <ele>20</ele>
        <time>2011-09-13T08:35:35Z</time>
      </trkpt>
      <trkpt lat="43.17379" lon="6.60508">
        <ele>18</ele>
        <time>2011-09-13T08:35:35Z</time>
      </trkpt>
      <trkpt lat="43.17382" lon="6.60487">
        <ele>19</ele>
        <time>2011-09-13T08:35:35Z</time>
      </trkpt>
      <trkpt lat="43.17382" lon="6.60478">
        <ele>19</ele>
        <time>2011-09-13T08:35:35Z</time>
      </trkpt>
      <trkpt lat="43.17374" lon="6.60479">
        <ele>17</ele>
        <time>2011-09-13T08:35:35Z</time>
      </trkpt>
      <trkpt lat="43.17374" lon="6.60471">
        <ele>17</ele>
        <time>2011-09-13T08:35:35Z</time>
      </trkpt>
      <trkpt lat="43.1738" lon="6.60438">
        <ele>18</ele>
        <time>2011-09-13T08:35:35Z</time>
      </trkpt>
      <trkpt lat="43.17401" lon="6.60375">
        <ele>20</ele>
        <time>2011-09-13T08:35:35Z</time>
      </trkpt>
      <trkpt lat="43.174" lon="6.60356">
        <ele>17</ele>
        <time>2011-09-13T08:35:35Z</time>
      </trkpt>
      <trkpt lat="43.17406" lon="6.60333">
        <ele>16</ele>
        <time>2011-09-13T08:35:35Z</time>
      </trkpt>
      <trkpt lat="43.17457" lon="6.60301">
        <ele>11</ele>
        <time>2011-09-13T08:35:35Z</time>
      </trkpt>
      <trkpt lat="43.17479" lon="6.6029">
        <ele>6</ele>
        <time>2011-09-13T08:35:35Z</time>
      </trkpt>
      <trkpt lat="43.1749" lon="6.60295">
        <ele>5</ele>
        <time>2011-09-13T08:35:35Z</time>
      </trkpt>
      <trkpt lat="43.17497" lon="6.60319">
        <ele>7</ele>
        <time>2011-09-13T08:35:35Z</time>
      </trkpt>
      <trkpt lat="43.17499" lon="6.6034">
        <ele>8</ele>
        <time>2011-09-13T08:35:35Z</time>
      </trkpt>
      <trkpt lat="43.175" lon="6.60379">
        <ele>12</ele>
        <time>2011-09-13T08:35:35Z</time>
      </trkpt>
      <trkpt lat="43.17513" lon="6.60416">
        <ele>13</ele>
        <time>2011-09-13T08:35:35Z</time>
      </trkpt>
      <trkpt lat="43.1754" lon="6.60445">
        <ele>14</ele>
        <time>2011-09-13T08:35:35Z</time>
      </trkpt>
      <trkpt lat="43.17538" lon="6.60452">
        <ele>15</ele>
        <time>2011-09-13T08:35:35Z</time>
      </trkpt>
      <trkpt lat="43.17543" lon="6.60455">
        <ele>16</ele>
        <time>2011-09-13T08:35:35Z</time>
      </trkpt>
      <trkpt lat="43.1756" lon="6.60457">
        <ele>17</ele>
        <time>2011-09-13T08:35:35Z</time>
      </trkpt>
      <trkpt lat="43.17584" lon="6.60444">
        <ele>15</ele>
        <time>2011-09-13T08:35:35Z</time>
      </trkpt>
      <trkpt lat="43.17613" lon="6.60439">
        <ele>15</ele>
        <time>2011-09-13T08:35:35Z</time>
      </trkpt>
      <trkpt lat="43.17638" lon="6.60437">
        <ele>15</ele>
        <time>2011-09-13T08:35:35Z</time>
      </trkpt>
      <trkpt lat="43.17645" lon="6.60441">
        <ele>15</ele>
        <time>2011-09-13T08:35:35Z</time>
      </trkpt>
      <trkpt lat="43.17666" lon="6.60445">
        <ele>17</ele>
        <time>2011-09-13T08:35:35Z</time>
      </trkpt>
      <trkpt lat="43.17667" lon="6.6044">
        <ele>16</ele>
        <time>2011-09-13T08:35:35Z</time>
      </trkpt>
      <trkpt lat="43.17689" lon="6.60423">
        <ele>18</ele>
        <time>2011-09-13T08:35:35Z</time>
      </trkpt>
      <trkpt lat="43.17696" lon="6.60412">
        <ele>18</ele>
        <time>2011-09-13T08:35:35Z</time>
      </trkpt>
      <trkpt lat="43.17714" lon="6.60405">
        <ele>19</ele>
        <time>2011-09-13T08:35:35Z</time>
      </trkpt>
      <trkpt lat="43.17752" lon="6.60422">
        <ele>26</ele>
        <time>2011-09-13T08:35:35Z</time>
      </trkpt>
      <trkpt lat="43.17759" lon="6.60407">
        <ele>23</ele>
        <time>2011-09-13T08:35:35Z</time>
      </trkpt>
      <trkpt lat="43.17779" lon="6.60396">
        <ele>23</ele>
        <time>2011-09-13T08:35:35Z</time>
      </trkpt>
      <trkpt lat="43.17791" lon="6.60382">
        <ele>22</ele>
        <time>2011-09-13T08:35:35Z</time>
      </trkpt>
      <trkpt lat="43.17821" lon="6.6037">
        <ele>24</ele>
        <time>2011-09-13T08:35:35Z</time>
      </trkpt>
      <trkpt lat="43.17845" lon="6.60368">
        <ele>26</ele>
        <time>2011-09-13T08:35:35Z</time>
      </trkpt>
      <trkpt lat="43.17857" lon="6.60354">
        <ele>26</ele>
        <time>2011-09-13T08:35:35Z</time>
      </trkpt>
      <trkpt lat="43.17862" lon="6.60335">
        <ele>23</ele>
        <time>2011-09-13T08:35:35Z</time>
      </trkpt>
      <trkpt lat="43.17868" lon="6.60329">
        <ele>23</ele>
        <time>2011-09-13T08:35:35Z</time>
      </trkpt>
      <trkpt lat="43.17887" lon="6.60324">
        <ele>26</ele>
        <time>2011-09-13T08:35:35Z</time>
      </trkpt>
      <trkpt lat="43.17902" lon="6.603">
        <ele>24</ele>
        <time>2011-09-13T08:35:35Z</time>
      </trkpt>
      <trkpt lat="43.17926" lon="6.60291">
        <ele>24</ele>
        <time>2011-09-13T08:35:35Z</time>
      </trkpt>
      <trkpt lat="43.17931" lon="6.60287">
        <ele>23</ele>
        <time>2011-09-13T08:35:35Z</time>
      </trkpt>
      <trkpt lat="43.17941" lon="6.60287">
        <ele>24</ele>
        <time>2011-09-13T08:35:35Z</time>
      </trkpt>
      <trkpt lat="43.1799" lon="6.60276">
        <ele>19</ele>
        <time>2011-09-13T08:35:35Z</time>
      </trkpt>
      <trkpt lat="43.18007" lon="6.60279">
        <ele>17</ele>
        <time>2011-09-13T08:35:35Z</time>
      </trkpt>
      <trkpt lat="43.18023" lon="6.60292">
        <ele>17</ele>
        <time>2011-09-13T08:35:35Z</time>
      </trkpt>
      <trkpt lat="43.18055" lon="6.6031">
        <ele>17</ele>
        <time>2011-09-13T08:35:35Z</time>
      </trkpt>
      <trkpt lat="43.18062" lon="6.60308">
        <ele>16</ele>
        <time>2011-09-13T08:35:35Z</time>
      </trkpt>
      <trkpt lat="43.18062" lon="6.60299">
        <ele>15</ele>
        <time>2011-09-13T08:35:35Z</time>
      </trkpt>
      <trkpt lat="43.18067" lon="6.6029">
        <ele>13</ele>
        <time>2011-09-13T08:35:35Z</time>
      </trkpt>
      <trkpt lat="43.18083" lon="6.60289">
        <ele>15</ele>
        <time>2011-09-13T08:35:35Z</time>
      </trkpt>
      <trkpt lat="43.18114" lon="6.60269">
        <ele>19</ele>
        <time>2011-09-13T08:35:35Z</time>
      </trkpt>
      <trkpt lat="43.18132" lon="6.60257">
        <ele>18</ele>
        <time>2011-09-13T08:35:35Z</time>
      </trkpt>
      <trkpt lat="43.18154" lon="6.60234">
        <ele>13</ele>
        <time>2011-09-13T08:35:35Z</time>
      </trkpt>
      <trkpt lat="43.18173" lon="6.60243">
        <ele>18</ele>
        <time>2011-09-13T08:35:35Z</time>
      </trkpt>
      <trkpt lat="43.18185" lon="6.6024">
        <ele>17</ele>
        <time>2011-09-13T08:35:35Z</time>
      </trkpt>
      <trkpt lat="43.18195" lon="6.60218">
        <ele>11</ele>
        <time>2011-09-13T08:35:35Z</time>
      </trkpt>
      <trkpt lat="43.18218" lon="6.60207">
        <ele>10</ele>
        <time>2011-09-13T08:35:35Z</time>
      </trkpt>
      <trkpt lat="43.18222" lon="6.60189">
        <ele>8</ele>
        <time>2011-09-13T08:35:35Z</time>
      </trkpt>
      <trkpt lat="43.18249" lon="6.60151">
        <ele>3</ele>
        <time>2011-09-13T08:35:35Z</time>
      </trkpt>
      <trkpt lat="43.18281" lon="6.6009">
        <ele>2</ele>
        <time>2011-09-13T08:35:35Z</time>
      </trkpt>
      <trkpt lat="43.1832" lon="6.60098">
        <ele>4</ele>
        <time>2011-09-13T08:35:35Z</time>
      </trkpt>
      <trkpt lat="43.18342" lon="6.60099">
        <ele>6</ele>
        <time>2011-09-13T08:35:35Z</time>
      </trkpt>
      <trkpt lat="43.18357" lon="6.60063">
        <ele>7</ele>
        <time>2011-09-13T08:35:35Z</time>
      </trkpt>
    </trkseg>
  </trk>
</gpx>